LNE724 SEQM-UHPP

Flight info

Callsign LNE724
Flight time N/A
Altitude 32000
Route NEGAL3A NEGAL UM674 TBG UN420 MORLI/N0490F340 UN420 SPP UM205 SIGMA UA766 KEHLI A766 SBI DCT CAAGE/N0482F330 DCT IAH/N0483F360 J33 FUZ J58 SPS J168 LAA J20 OCS J163 PIH J20 BEAMO/N0472F380 J20 SEA Q902 ANN J195 BKA J605 MDO Q10 ENA/N0482F400 Q10 ENM G583 BESAT/K0883F400 G583 GEFAR B244 TUPAN TUPAN5N
Aircraft A339/H-SADE1E2E3GHIJ3J5M1P2RWXY/LB2D1

Departure

Time N/A
Airport Mariscal Sucre International Airport (SEQM)

Arrival

Time 2026-05-06 12:11
Airport Yelizovo Airport (UHPP)
Time Latitude Longitude Altitude Speed Heading
2026-05-06 11:35 53.46428 163.05861 37404 ft 474 kts 276°
2026-05-06 11:35 53.46758 163.00367 37403 ft 474 kts 276°
2026-05-06 11:36 53.47419 162.89398 37323 ft 476 kts 274°
2026-05-06 11:36 53.48073 162.78339 37238 ft 480 kts 273°
2026-05-06 11:37 53.48707 162.67193 37217 ft 482 kts 272°
2026-05-06 11:37 53.49329 162.56037 37212 ft 483 kts 272°
2026-05-06 11:38 53.49945 162.44860 37197 ft 483 kts 272°
2026-05-06 11:38 53.50553 162.33679 37199 ft 483 kts 272°
2026-05-06 11:39 53.51154 162.22491 37200 ft 483 kts 272°
2026-05-06 11:39 53.51744 162.11293 37125 ft 482 kts 272°
2026-05-06 11:39 53.52033 162.05749 36908 ft 475 kts 272°
2026-05-06 11:40 53.52315 162.00286 36693 ft 471 kts 272°
2026-05-06 11:40 53.52594 161.94827 36470 ft 471 kts 272°
2026-05-06 11:40 53.52869 161.89370 36249 ft 471 kts 272°
2026-05-06 11:40 53.53142 161.83911 36023 ft 470 kts 272°
2026-05-06 11:41 53.53411 161.78471 35805 ft 470 kts 272°
2026-05-06 11:41 53.53680 161.73016 35580 ft 470 kts 272°
2026-05-06 11:41 53.53946 161.67560 35374 ft 470 kts 272°
2026-05-06 11:41 53.54210 161.62111 35146 ft 471 kts 272°
2026-05-06 11:42 53.54471 161.56647 34912 ft 470 kts 272°
2026-05-06 11:42 53.54730 161.51194 34692 ft 470 kts 272°
2026-05-06 11:42 53.54985 161.45746 34459 ft 470 kts 272°
2026-05-06 11:42 53.55238 161.40289 34239 ft 470 kts 272°
2026-05-06 11:43 53.55489 161.34827 34018 ft 471 kts 271°
2026-05-06 11:43 53.55737 161.29354 33785 ft 471 kts 271°
2026-05-06 11:43 53.55984 161.23880 33560 ft 472 kts 271°
2026-05-06 11:44 53.56469 161.12922 33105 ft 473 kts 272°
2026-05-06 11:44 53.56709 161.07429 32879 ft 473 kts 272°
2026-05-06 11:44 53.56946 161.01943 32703 ft 473 kts 272°
2026-05-06 11:44 53.57182 160.96447 32536 ft 473 kts 272°
2026-05-06 11:45 53.57415 160.90945 32370 ft 474 kts 272°
2026-05-06 11:45 53.57645 160.85447 32202 ft 474 kts 272°
2026-05-06 11:45 53.57874 160.79928 31926 ft 475 kts 272°
2026-05-06 11:45 53.58100 160.74407 31456 ft 478 kts 271°
2026-05-06 11:46 53.58325 160.68835 30800 ft 484 kts 271°
2026-05-06 11:46 53.58551 160.63173 29948 ft 494 kts 271°
2026-05-06 11:46 53.58776 160.57406 28997 ft 502 kts 271°
2026-05-06 11:46 53.59003 160.51575 28202 ft 503 kts 271°
2026-05-06 11:47 53.59227 160.45752 27579 ft 500 kts 271°
2026-05-06 11:47 53.59449 160.39970 26953 ft 496 kts 271°
2026-05-06 11:47 53.59665 160.34219 26251 ft 494 kts 271°
2026-05-06 11:47 53.59878 160.28500 25551 ft 491 kts 271°
2026-05-06 11:48 53.60087 160.22807 24845 ft 489 kts 270°
2026-05-06 11:48 53.60292 160.17129 24160 ft 487 kts 270°
2026-05-06 11:48 53.60493 160.11520 23666 ft 479 kts 270°
2026-05-06 11:48 53.60688 160.05981 23133 ft 473 kts 270°
2026-05-06 11:49 53.60877 160.00492 22475 ft 470 kts 270°
2026-05-06 11:49 53.61062 159.95051 21932 ft 465 kts 270°
2026-05-06 11:49 53.61242 159.89675 21428 ft 459 kts 271°
2026-05-06 11:49 53.61419 159.84376 20937 ft 452 kts 271°
2026-05-06 11:50 53.61590 159.79145 20462 ft 446 kts 271°
2026-05-06 11:50 53.61757 159.73981 19972 ft 441 kts 271°
2026-05-06 11:50 53.61920 159.68873 19495 ft 436 kts 271°
2026-05-06 11:50 53.62079 159.63825 19014 ft 431 kts 271°
2026-05-06 11:51 53.62235 159.58836 18558 ft 426 kts 271°
2026-05-06 11:51 53.62385 159.53907 18110 ft 422 kts 271°
2026-05-06 11:51 53.62530 159.49016 17617 ft 418 kts 272°
2026-05-06 11:51 53.62675 159.44167 17118 ft 414 kts 272°
2026-05-06 11:52 53.62816 159.39371 16617 ft 410 kts 272°
2026-05-06 11:52 53.62954 159.34611 16071 ft 408 kts 272°
2026-05-06 11:52 53.63090 159.29872 15533 ft 405 kts 272°
2026-05-06 11:52 53.63222 159.25202 15226 ft 395 kts 272°
2026-05-06 11:53 53.63349 159.20681 15194 ft 379 kts 272°
2026-05-06 11:53 53.63469 159.16356 15193 ft 363 kts 272°
2026-05-06 11:53 53.63572 159.12205 15188 ft 348 kts 270°
2026-05-06 11:53 53.63153 159.08318 15167 ft 334 kts 247°
2026-05-06 11:54 53.61898 159.05159 15151 ft 322 kts 225°
2026-05-06 11:54 53.60094 159.03019 14838 ft 320 kts 204°
2026-05-06 11:54 53.57967 159.02013 14524 ft 319 kts 192°
2026-05-06 11:54 53.55801 159.01318 14218 ft 317 kts 191°
2026-05-06 11:55 53.53651 159.00637 13939 ft 314 kts 192°
2026-05-06 11:55 53.51523 158.99950 13663 ft 311 kts 192°
2026-05-06 11:55 53.49417 158.99256 13397 ft 308 kts 192°
2026-05-06 11:55 53.47334 158.98560 13141 ft 304 kts 192°
2026-05-06 11:56 53.45276 158.97869 12888 ft 300 kts 192°
2026-05-06 11:56 53.43244 158.97183 12659 ft 296 kts 192°
2026-05-06 11:56 53.41244 158.96510 12438 ft 292 kts 193°
2026-05-06 11:56 53.39277 158.95843 12232 ft 287 kts 193°
2026-05-06 11:57 53.37751 158.95325 12053 ft 285 kts 193°
2026-05-06 11:57 53.35919 158.94699 11389 ft 282 kts 192°
2026-05-06 11:57 53.34002 158.94052 11140 ft 281 kts 192°
2026-05-06 11:57 53.32102 158.93414 11001 ft 275 kts 192°
2026-05-06 11:58 53.30267 158.92798 10993 ft 264 kts 192°
2026-05-06 11:58 53.28505 158.92206 10990 ft 253 kts 192°
2026-05-06 11:58 53.26817 158.91640 10989 ft 242 kts 192°
2026-05-06 11:58 53.25203 158.91097 10988 ft 232 kts 192°
2026-05-06 11:59 53.23640 158.90573 10994 ft 229 kts 192°
2026-05-06 11:59 53.22076 158.90047 10995 ft 230 kts 192°
2026-05-06 11:59 53.20506 158.89518 10996 ft 231 kts 192°
2026-05-06 11:59 53.18932 158.88990 10997 ft 231 kts 192°
2026-05-06 12:00 53.17350 158.88461 10810 ft 234 kts 192°
2026-05-06 12:00 53.15749 158.87927 10496 ft 238 kts 192°
2026-05-06 12:00 53.14122 158.87383 10192 ft 241 kts 192°
2026-05-06 12:00 53.12476 158.86833 9877 ft 244 kts 192°
2026-05-06 12:01 53.10806 158.86276 9567 ft 247 kts 192°
2026-05-06 12:01 53.09116 158.85713 9250 ft 250 kts 192°
2026-05-06 12:01 53.07405 158.85143 8927 ft 253 kts 191°
2026-05-06 12:01 53.05672 158.84567 8597 ft 256 kts 191°
2026-05-06 12:02 53.03918 158.83984 8268 ft 259 kts 191°
2026-05-06 12:02 53.02148 158.83397 7937 ft 262 kts 191°
2026-05-06 12:02 53.00367 158.82807 7702 ft 260 kts 191°
2026-05-06 12:02 52.98635 158.82232 7688 ft 249 kts 191°
2026-05-06 12:03 52.97005 158.81496 7674 ft 238 kts 209°
2026-05-06 12:03 52.95872 158.79482 7838 ft 254 kts 244°
2026-05-06 12:03 52.95240 158.76778 8503 ft 251 kts 250°
2026-05-06 12:03 52.94686 158.74072 8556 ft 247 kts 250°
2026-05-06 12:04 52.94115 158.71429 8272 ft 242 kts 249°
2026-05-06 12:04 52.93521 158.68854 7949 ft 237 kts 248°
2026-05-06 12:04 52.92936 158.66383 7532 ft 228 kts 251°
2026-05-06 12:04 52.92858 158.63824 7039 ft 226 kts 285°
2026-05-06 12:05 52.93641 158.61637 6640 ft 222 kts 316°
2026-05-06 12:05 52.94889 158.60210 6292 ft 217 kts 333°
2026-05-06 12:05 52.96248 158.59241 5980 ft 210 kts 339°
2026-05-06 12:05 52.97598 158.58404 5645 ft 206 kts 340°
2026-05-06 12:06 52.98921 158.57565 5329 ft 202 kts 339°
2026-05-06 12:06 53.00206 158.56708 5022 ft 198 kts 338°
2026-05-06 12:06 53.01461 158.55842 4703 ft 194 kts 337°
2026-05-06 12:06 53.02688 158.54984 4382 ft 190 kts 337°
2026-05-06 12:07 53.03890 158.54140 4074 ft 186 kts 337°
2026-05-06 12:07 53.05069 158.53314 3776 ft 183 kts 337°
2026-05-06 12:07 53.06224 158.52507 3485 ft 179 kts 337°
2026-05-06 12:07 53.07404 158.51688 2927 ft 192 kts 338°
2026-05-06 12:08 53.08640 158.50830 2602 ft 188 kts 337°
2026-05-06 12:08 53.09803 158.50014 2397 ft 180 kts 337°
2026-05-06 12:08 53.10958 158.49199 2003 ft 183 kts 337°
2026-05-06 12:08 53.12145 158.48358 1495 ft 192 kts 337°
2026-05-06 12:09 53.13405 158.47505 934 ft 202 kts 339°
2026-05-06 12:09 53.14707 158.46625 418 ft 207 kts 338°
2026-05-06 12:09 53.16007 158.45683 157 ft 196 kts 338°
2026-05-06 12:09 53.17213 158.44879 138 ft 178 kts 338°
2026-05-06 12:10 53.18357 158.44096 139 ft 177 kts 323°
2026-05-06 12:10 53.19296 158.42796 120 ft 177 kts 315°
2026-05-06 12:10 53.20160 158.41503 98 ft 152 kts 322°
2026-05-06 12:10 53.20852 158.40541 75 ft 109 kts 317°
2026-05-06 12:11 53.21255 158.39872 79 ft 55 kts 310°
2026-05-06 12:11 53.21425 158.39524 76 ft 22 kts 307°
2026-05-06 12:11 53.21469 158.39424 75 ft 4 kts 306°
2026-05-06 12:11 53.21478 158.39405 76 ft 0 kts 306°